Location: Congrier
(47.8099°N, 1.1170°W)
Time: 14:57:41
(UTC+00:00)

CZ-4 DEB - Visible Passes

Search period start: 23 February 2024 00:00
Search period end: 04 March 2024 00:00
Orbit: 690 x 837 km, 98.8° (Epoch: 21 February)

Date Brightness Start Highest point End Pass type
(mag) Time Alt. Az. Time Alt. Az. Time Alt. Az.
23 Feb ? 18:03:43 10° ESE 18:08:11 27° ENE 18:12:43 10° N visible
23 Feb ? 19:41:30 10° S 19:46:47 54° W 19:52:09 10° NNW visible
24 Feb ? 19:04:09 10° SSE 19:09:33 78° ENE 19:15:03 10° NNW visible
24 Feb ? 20:45:34 10° SW 20:49:04 17° W 20:52:37 10° NW visible
25 Feb ? 18:27:31 10° SE 18:32:32 40° ENE 18:37:37 10° N visible
25 Feb ? 20:06:35 10° SSW 20:11:29 34° W 20:16:27 10° NNW visible
26 Feb ? 19:28:43 10° S 19:34:07 69° WSW 19:39:36 10° NNW visible
26 Feb ? 21:13:06 10° W 21:14:01 10° W 21:14:56 10° WNW visible
27 Feb ? 18:51:37 10° SSE 18:56:58 62° ENE 19:02:23 10° N visible
27 Feb ? 20:32:07 10° SW 20:36:16 22° W 20:40:29 10° NW visible
28 Feb ? 18:15:14 10° SE 18:20:01 33° ENE 18:24:49 10° N visible
28 Feb ? 19:53:36 10° S 19:58:46 44° W 20:04:00 10° NNW visible
29 Feb ? 19:16:01 10° SSE 19:21:29 86° WSW 19:26:59 10° NNW visible
29 Feb ? 20:58:24 10° WSW 21:01:09 14° W 21:03:55 10° NW visible
01 Mar ? 18:39:10 10° SE 18:44:23 49° ENE 18:49:38 10° N visible
01 Mar ? 20:18:51 10° SSW 20:23:29 28° W 20:28:10 10° NW visible
02 Mar ? 19:40:43 10° S 19:46:04 56° W 19:51:26 10° NNW visible
03 Mar ? 19:03:24 10° SSE 19:08:50 76° ENE 19:14:17 10° NNW visible
03 Mar ? 20:44:39 10° SW 20:48:18 18° W 20:51:57 10° NW visible
